| time (UTC) | temp F | wind direction | speed MPH | gust MPH | rain 1hr in | rain 24hr in | rain mn in | humidity % | barometer mb |
| 20260831074508 | 65 | 13 | 0.0 | 0.0 | 0.00 | 0.00 | 0.00 | 100 | 1019.6 |
| 20260831073009 | 66 | 13 | 0.0 | 0.0 | 0.00 | 0.00 | 0.00 | 100 | 1019.5 |
| 20260831071559 | 67 | 13 | 0.0 | 0.0 | 0.00 | 0.00 | 0.00 | 100 | 1019.4 |
| 20260831070055 | 68 | 13 | 0.0 | 0.0 | 0.00 | 0.00 | 0.00 | 100 | 1019.7 |
| 20260831064550 | 68 | 13 | 0.0 | 0.0 | 0.00 | 0.00 | 0.00 | 2 | 1019.7 |
| 20260831063045 | 68 | 13 | 0.0 | 1.0 | 0.00 | 0.00 | 0.00 | 5 | 1019.5 |
| 20260831061540 | 68 | 13 | 0.0 | 0.0 | 0.00 | 0.00 | 0.00 | 3 | 1019.6 |
| 20260831060037 | 68 | 13 | 0.0 | 2.0 | 0.00 | 0.00 | 0.00 | 1 | 1019.5 |
| 20260831054537 | 67 | 13 | 0.0 | 2.0 | 0.00 | 0.00 | 0.00 | 100 | 1019.6 |
| 20260831053030 | 67 | 13 | 0.0 | 1.0 | 0.00 | 0.00 | 0.00 | 4 | 1019.5 |
| 20260831051527 | 68 | 13 | 0.0 | 4.0 | 0.00 | 0.00 | 0.00 | 5 | 1019.5 |
| 20260831050022 | 68 | 12 | 1.0 | 5.0 | 0.00 | 0.00 | 0.00 | 3 | 1019.4 |
| 20260831044515 | 67 | 38 | 0.0 | 4.0 | 0.00 | 0.00 | 0.00 | 1 | 1019.1 |
| 20260831043010 | 67 | 31 | 0.0 | 1.0 | 0.00 | 0.00 | 0.00 | 2 | 1019.1 |
| 20260831041508 | 67 | 19 | 0.0 | 2.0 | 0.00 | 0.00 | 0.00 | 3 | 1019.1 |
| 20260831040002 | 68 | 19 | 0.0 | 1.0 | 0.00 | 0.00 | 0.00 | 6 | 1019.2 |
| 20260831034600 | 68 | 19 | 0.0 | 1.0 | 0.00 | 0.00 | 0.00 | 9 | 1019.3 |
| 20260831033053 | 68 | 286 | 0.0 | 3.0 | 0.00 | 0.00 | 0.00 | 8 | 1019.3 |
| 20260831031549 | 68 | 42 | 0.0 | 6.0 | 0.00 | 0.00 | 0.00 | 9 | 1019.5 |
| 20260831030053 | 69 | 13 | 0.0 | 3.0 | 0.00 | 0.00 | 0.00 | 9 | 1019.3 |
| 20260831024556 | 69 | 289 | 0.0 | 3.0 | 0.00 | 0.00 | 0.00 | 10 | 1019.1 |
| 20260831023035 | 69 | 339 | 0.0 | 2.0 | 0.00 | 0.00 | 0.00 | 9 | 1019.3 |
| 20260831021539 | 69 | 26 | 0.0 | 1.0 | 0.00 | 0.00 | 0.00 | 10 | 1019.3 |
| 20260831020029 | 69 | 26 | 0.0 | 3.0 | 0.00 | 0.00 | 0.00 | 15 | 1019.4 |
| 20260831014523 | 69 | 21 | 0.0 | 2.0 | 0.00 | 0.00 | 0.00 | 16 | 1019.5 |
| 20260831013018 | 69 | 39 | 0.0 | 5.0 | 0.00 | 0.00 | 0.00 | 13 | 1019.4 |
| 20260831011528 | 69 | 24 | 0.0 | 3.0 | 0.00 | 0.00 | 0.00 | 3 | 1019.2 |
| 20260831010009 | 69 | 17 | 0.0 | 1.0 | 0.00 | 0.00 | 0.00 | 100 | 1018.8 |
| 20260831004505 | 69 | 17 | 0.0 | 2.0 | 0.00 | 0.00 | 0.00 | 100 | 1018.7 |
| 20260831003101 | 69 | 19 | 0.0 | 0.0 | 0.00 | 0.00 | 0.00 | 2 | 1018.4 |
| 20260831001605 | 69 | 19 | 0.0 | 0.0 | 0.00 | 0.00 | 0.00 | 5 | 1018.1 |
| 20260831000110 | 69 | 19 | 0.0 | 0.0 | 0.00 | 0.00 | 0.00 | 7 | 1017.9 |
| 20260830234548 | 69 | 19 | 0.0 | 5.0 | 0.00 | 0.00 | 0.00 | 7 | 1017.8 |
| 20260830233043 | 69 | 55 | 0.0 | 0.0 | 0.00 | 0.00 | 0.00 | 9 | 1017.7 |
| 20260830231542 | 70 | 55 | 0.0 | 0.0 | 0.00 | 0.00 | 0.00 | 14 | 1017.8 |
| 20260830230045 | 70 | 55 | 0.0 | 1.0 | 0.00 | 0.00 | 0.00 | 20 | 1017.8 |
| 20260830224530 | 71 | 55 | 0.0 | 1.0 | 0.00 | 0.00 | 0.00 | 22 | 1018.1 |
| 20260830223025 | 71 | 45 | 1.0 | 7.0 | 0.00 | 0.00 | 0.00 | 23 | 1018.1 |
| 20260830221521 | 73 | 159 | 0.0 | 0.0 | 0.00 | 0.00 | 0.00 | 100 | 1017.8 |
| 20260830220018 | 73 | 159 | 0.0 | 0.0 | 0.00 | 0.00 | 0.00 | 100 | 1017.6 |
| 20260830214512 | 73 | 159 | 0.0 | 0.0 | 0.00 | 0.00 | 0.00 | 100 | 1017.4 |
| 20260830213009 | 73 | 159 | 0.0 | 0.0 | 0.00 | 0.00 | 0.00 | 100 | 1017.2 |
| 20260830211504 | 74 | 159 | 0.0 | 0.0 | 0.00 | 0.00 | 0.00 | 100 | 1017.2 |
| 20260830210100 | 74 | 159 | 0.0 | 0.0 | 0.00 | 0.00 | 0.00 | 2 | 1017.2 |
| 20260830204555 | 74 | 159 | 0.0 | 0.0 | 0.00 | 0.00 | 0.00 | 13 | 1017.2 |
| 20260830203051 | 75 | 159 | 0.0 | 0.0 | 0.00 | 0.00 | 0.00 | 19 | 1017.3 |
| 20260830201548 | 75 | 159 | 0.0 | 0.0 | 0.00 | 0.00 | 0.00 | 30 | 1017.4 |
| 20260830200042 | 75 | 159 | 0.0 | 1.0 | 0.00 | 0.00 | 0.00 | 35 | 1017.5 |
| 20260830194544 | 75 | 159 | 0.0 | 1.0 | 0.00 | 0.00 | 0.00 | 37 | 1017.5 |
| 20260830193038 | 75 | 159 | 0.0 | 1.0 | 0.00 | 0.00 | 0.00 | 35 | 1017.6 |
| 20260830191528 | 75 | 159 | 0.0 | 0.0 | 0.00 | 0.00 | 0.00 | 46 | 1017.8 |
| 20260830190027 | 76 | 160 | 0.0 | 1.0 | 0.00 | 0.00 | 0.00 | 48 | 1017.9 |
| 20260830184526 | 76 | 188 | 0.0 | 4.0 | 0.00 | 0.00 | 0.00 | 47 | 1018.1 |
| 20260830183015 | 76 | 184 | 0.0 | 1.0 | 0.00 | 0.00 | 0.00 | 40 | 1018.3 |
| 20260830181512 | 76 | 184 | 0.0 | 2.0 | 0.00 | 0.00 | 0.00 | 51 | 1018.4 |
| 20260830180007 | 76 | 184 | 0.0 | 1.0 | 0.00 | 0.00 | 0.00 | 51 | 1018.4 |
| 20260830174504 | 76 | 185 | 0.0 | 2.0 | 0.00 | 0.00 | 0.00 | 50 | 1018.6 |
| 20260830173106 | 76 | 35 | 0.0 | 3.0 | 0.00 | 0.00 | 0.00 | 46 | 1018.7 |
| 20260830171626 | 75 | 185 | 0.0 | 1.0 | 0.00 | 0.00 | 0.00 | 40 | 1018.9 |
| 20260830170050 | 74 | 185 | 0.0 | 0.0 | 0.00 | 0.00 | 0.00 | 39 | 1019.1 |
| 20260830164546 | 73 | 185 | 0.0 | 0.0 | 0.00 | 0.00 | 0.00 | 34 | 1019.2 |
| 20260830163047 | 73 | 185 | 0.0 | 0.0 | 0.00 | 0.00 | 0.00 | 23 | 1019.2 |
| 20260830161541 | 73 | 185 | 0.0 | 0.0 | 0.00 | 0.00 | 0.00 | 29 | 1019.5 |
| 20260830160032 | 72 | 185 | 0.0 | 0.0 | 0.00 | 0.00 | 0.00 | 28 | 1019.8 |
| 20260830154528 | 72 | 185 | 0.0 | 1.0 | 0.00 | 0.00 | 0.00 | 23 | 1020.0 |
| 20260830153023 | 71 | 185 | 0.0 | 1.0 | 0.00 | 0.00 | 0.00 | 28 | 1020.4 |
| 20260830151518 | 71 | 185 | 0.0 | 0.0 | 0.00 | 0.00 | 0.00 | 28 | 1020.4 |
| 20260830150014 | 71 | 186 | 0.0 | 3.0 | 0.00 | 0.00 | 0.00 | 27 | 1020.4 |
| 20260830144512 | 71 | 161 | 0.0 | 1.0 | 0.00 | 0.00 | 0.00 | 23 | 1020.6 |
| 20260830143009 | 71 | 161 | 0.0 | 1.0 | 0.00 | 0.00 | 0.00 | 17 | 1020.6 |
| 20260830141501 | 69 | 161 | 0.0 | 2.0 | 0.00 | 0.00 | 0.00 | 15 | 1020.7 |
| 20260830140057 | 69 | 161 | 0.0 | 0.0 | 0.00 | 0.00 | 0.00 | 9 | 1020.7 |
| 20260830134553 | 68 | 161 | 0.0 | 1.0 | 0.00 | 0.00 | 0.00 | 100 | 1021.0 |
| 20260830133054 | 67 | 161 | 0.0 | 1.0 | 0.00 | 0.00 | 0.00 | 100 | 1021.1 |
| 20260830131549 | 65 | 162 | 0.0 | 3.0 | 0.00 | 0.00 | 0.00 | 100 | 1021.1 |
| 20260830130052 | 64 | 161 | 0.0 | 1.0 | 0.00 | 0.00 | 0.00 | 100 | 1021.3 |
| 20260830124535 | 63 | 161 | 0.0 | 3.0 | 0.00 | 0.00 | 0.00 | 100 | 1021.4 |
| 20260830123030 | 62 | 121 | 0.0 | 1.0 | 0.00 | 0.00 | 0.00 | 100 | 1021.7 |
| 20260830121526 | 61 | 121 | 0.0 | 0.0 | 0.00 | 0.00 | 0.00 | 100 | 1021.8 |
| 20260830120022 | 59 | 121 | 0.0 | 0.0 | 0.00 | 0.00 | 0.00 | 100 | 1021.8 |
| 20260830114519 | 0 | 0.0 | 0.0 | 0.00 | 0.00 | 0.00 | 1021.8 | ||
| 20260830113012 | 0 | 0.0 | 0.0 | 0.00 | 0.00 | 0.00 | 1022.0 | ||
| 20260830111509 | 0 | 0.0 | 0.0 | 0.00 | 0.00 | 0.00 | 1021.9 | ||
| 20260830110007 | 0 | 0.0 | 0.0 | 0.00 | 0.00 | 0.00 | 1022.0 | ||
| 20260830104600 | 0 | 0.0 | 0.0 | 0.00 | 0.00 | 0.00 | 1021.9 | ||
| 20260830103055 | 0 | 0.0 | 0.0 | 0.00 | 0.00 | 0.00 | 1021.9 | ||
| 20260830101550 | 0 | 0.0 | 0.0 | 0.00 | 0.00 | 0.00 | 1022.0 | ||
| 20260830100058 | 0 | 0.0 | 0.0 | 0.00 | 0.00 | 0.00 | 1021.9 | ||
| 20260830094542 | 0 | 0.0 | 0.0 | 0.00 | 0.00 | 0.00 | 1021.9 | ||
| 20260830093037 | 0 | 0.0 | 0.0 | 0.00 | 0.00 | 0.00 | 1021.9 | ||
| 20260830091538 | 0 | 0.0 | 0.0 | 0.00 | 0.00 | 0.00 | 1021.9 | ||
| 20260830090028 | 0 | 0.0 | 0.0 | 0.00 | 0.00 | 0.00 | 1022.0 | ||
| 20260830084538 | 0 | 0.0 | 0.0 | 0.00 | 0.00 | 0.00 | 1022.0 | ||
| 20260830083019 | 0 | 0.0 | 0.0 | 0.00 | 0.00 | 0.00 | 1022.2 | ||
| 20260830081515 | 0 | 0.0 | 0.0 | 0.00 | 0.00 | 0.00 | 1022.2 | ||
| 20260830080011 | 0 | 0.0 | 0.0 | 0.00 | 0.00 | 0.00 | 1022.2 |